User: anonymous   Login
Location: *
(43.4667°N, 11.6833°E)
Time: 03:10:32
(UTC+00:00)
Language:

Cosmos 407 Rocket - Orbit

View from above orbital plane
View from above orbital plane
View from above satellite
View from above satellite

Ground track
Ground track

The orbit data is extracted from the following two-line orbital elements,

1  5175U 71035B   19262.22472168 -.00000012  00000-0  47925-5 0  9992
2  5175  74.0479 132.8409 0029327 139.1676 221.1683 14.37951230533384
Epoch (UTC): 19 September 2019 05:23:35
Eccentricity: 0.0029327
inclination: 74.0479°
perigee height: 744 km
apogee height: 786 km
right ascension of ascending node: 132.8409°
argument of perigee: 139.1676°
revolutions per day: 14.37951230
mean anomaly at epoch: 221.1683°
orbit number at epoch: 53338

The dashed part of the orbit path shows where the satellite is in the earth's shadow,  

DLR